Regional Weather Roundup
Issued by NWS Charleston, WV

Home | Current Version | Previous Version | Graphics & Text | Print | Product List | Glossary On
Versions: 1 2 3 4 5 6 7 8 9 10 11 12 13 14 15 16 17 18 19 20 21 22 23 24 25 26 27
000
ASUS41 KRLX 201310
RWRRLX
West Virginia Regional Weather Roundup
National Weather Service Charleston WV
900 AM EDT FRI APR 20 2018

Note: "fair" indicates few or no clouds below 12,000 feet with no
significant weather and/or obstructions to visibility.

WVZ003-201400-
Northern Panhandle of West Virginia

CITY           SKY/WX    TMP DP  RH WIND       PRES   REMARKS
WHEELING       FAIR      34  22  61 W9        30.39R
$$

WVZ009-201400-
Northwest West Virginia

CITY           SKY/WX    TMP DP  RH WIND       PRES   REMARKS
PARKERSBURG    FAIR      39  25  57 N3        30.46R
$$

WVZ006-201400-
Western West Virginia

CITY           SKY/WX    TMP DP  RH WIND       PRES   REMARKS
HUNTINGTON     FAIR      39  28  64 N5        30.44R
$$

WVZ015-201400-
West Central West Virginia

CITY           SKY/WX    TMP DP  RH WIND       PRES   REMARKS
CHARLESTON     FAIR      40  24  53 CALM      30.43R
$$

WVZ022-031-201400-
North Central West Virginia

CITY           SKY/WX    TMP DP  RH WIND       PRES   REMARKS
CLARKSBURG     FAIR      38  21  50 CALM      30.39R
MORGANTOWN     FAIR      37  22  54 NW5       30.39R
$$

WVZ025-035-042-045-201400-
Southern West Virginia

CITY           SKY/WX    TMP DP  RH WIND       PRES   REMARKS
BECKLEY        FAIR      36  15  42 N10       30.35R
LOGAN          FAIR      39  21  48 CALM      30.39R
BLUEFIELD      FAIR      35  19  52 N9        30.34R
LEWISBURG      FAIR      37  15  39 N7        30.34R
$$

WVZ047-201400-
Northern Mountains of West Virginia

CITY           SKY/WX    TMP DP  RH WIND       PRES   REMARKS
ELKINS         FAIR      35  19  52 N8        30.36R
$$

WVZ052-201400-
Eastern Panhandle of West Virginia

CITY           SKY/WX    TMP DP  RH WIND       PRES   REMARKS
MARTINSBURG    FAIR      41  21  44 NW14      30.29R
PETERSBURG     FAIR      40  19  43 NW13      30.34R
$$




USA.gov is the U.S. government's official web portal to all federal, state and local government web resources and services.